PROFILE

 METAR AND TAF INFORMATION
ADDS - METARS form results

(0556 UTC 19 July 2019)
http://aviationweather.gov/metar/data/
 
EGLC 190550Z AUTO 23006KT 190V260 9999 NCD 16/11 Q1013
EGLC 190520Z AUTO 23005KT 9999 NCD 16/11 Q1013
TAF EGLC 190459Z 1906/1915 21008KT 9999 FEW040 TEMPO 1908/1915 6000 RA BECMG 1911/1914 BKN014 PROB30 TEMPO 1912/1915 20015G25KT 4000 RADZ BKN008 

 AIRPORT MAP

 RUNWAY INFORMATION
Runway 10 Runway length 4948 ft Runway width 98 ft
Runway elevation 16 ft Runway displaced threshold 358 ft Runway heading 93
Runway 28 Runway length 4948 ft Runway width 98 ft
Runway elevation 19 ft Runway displaced threshold 211 ft Runway heading 273

 AIRPORT FREQUENCIES
Type APP Name APP Frequency 132.7 MHZ
Type ATIS Name ATIS Frequency 136.35 MHZ
Type GND Name GND Frequency 121.825 MHZ
Type TWR Name TWR Frequency 118.075 MHZ

 AIRPORT NEAR NAVIGATION AIDS
Type NDB Name City Frequency 322 KHZ